Flag for Ireland Weather past 2 weeks in Cork, Ireland

Now
31 °F

Passing clouds.


Feels Like: 25 °F
Forecast: 36 / 45 °F
Wind: 6 mph from West

Location: Cork Airport

Current Time: Mar 3, 2015 at 7:58:20 AM

Latest Report: Mar 3, 2015 at 7:00 AM


Visibility: 16 mi

Pressure: 29.94 "Hg

Humidity: 100%

Dew point: 31 °F

Location of CorkLocation

Historic Weather in Cork — Graph

°F

Cork temperature yesterday

Maximum temperature yesterday: 42 °F (at 1:00 PM)
Minimum temperature yesterday: 32 °F (at 7:00 AM)
Average temperature yesterday: 36 °F

Past Weeks' High & Low Weather Summary

 TemperatureHumidityPressure
High56 °F (Feb 25, 1:00 PM)100% (Feb 18, 1:00 AM)30.66 "Hg (Feb 18, 1:00 AM)
Low29 °F (Mar 3, 5:00 AM)63% (Feb 26, 1:00 PM)29.15 "Hg (Feb 23, 1:00 PM)
Average42 °F90%29.86 "Hg
* Reported Feb 16 6:00 AM — Mar 3 6:00 AM, Cork, Weather by CustomWeather, © 2015

Note: Actual official high and low records may vary slightly from our data, if they occured in-between our weather recording intervals... More about our weather records

Advertising

Cork weather history for previous 24 hours

 ConditionsComfort  
Time TempWeatherWind HumidityBarometerVisibility
6:00 AM
Tue, Mar 3
32 °FOvercast.6 mph100%29.91 "Hg16 mi
5:00 AM29 °FPassing clouds.3 mph100%29.90 "Hg12 mi
4:00 AM32 °FOvercast.5 mph100%29.90 "Hg12 mi
3:00 AM32 °FOvercast.5 mph100%29.88 "Hg16 mi
2:00 AM33 °FLow clouds.2 mph100%29.89 "Hg12 mi
1:00 AM34 °FOvercast.7 mph98%29.88 "Hg19 mi
12:00 AM34 °FPassing clouds.6 mph98%29.89 "Hg19 mi
11:00 PM
Mon, Mar 2
34 °FPassing clouds.6 mph98%29.89 "Hg19 mi
10:00 PM33 °FLow clouds.6 mph99%29.89 "Hg19 mi
8:00 PM35 °FPassing clouds.8 mph92%29.89 "Hg22 mi
7:00 PM37 °FOvercast.9 mph81%29.88 "Hg22 mi
6:00 PM40 °FScattered clouds.6 mph71%29.86 "Hg25 mi
5:00 PM41 °FScattered clouds.8 mph74%29.84 "Hg25 mi
4:00 PM42 °FScattered clouds.9 mph74%29.85 "Hg25 mi
3:00 PM39 °FSprinkles. Overcast.13 mph79%29.84 "Hg16 mi
2:00 PM41 °FPassing clouds.9 mph78%29.84 "Hg28 mi
1:00 PM42 °FScattered clouds.9 mph66%29.84 "Hg25 mi
12:00 PM40 °FPassing clouds.9 mph79%29.85 "Hg28 mi
11:00 AM37 °FPassing clouds.7 mph87%29.83 "Hg19 mi
10:00 AM37 °FScattered clouds.6 mph81%29.82 "Hg19 mi
9:00 AM34 °FPassing clouds.6 mph87%29.80 "Hg22 mi
8:00 AM32 °FPassing clouds.6 mph93%29.77 "Hg25 mi
7:00 AM32 °FPassing clouds.8 mph100%29.74 "Hg12 mi
Weather by CustomWeather, © 2015

See weather overviewHow to use our weather pages